Location: Bennemühlen
(52.5740°N, 9.7135°E)
Time: 06:31:46
(UTC+00:00)

A-11 Canister half - Pass Details

Date: 26 February 2026
Orbit: 1512 x 1687 km, 47.2° (Epoch: 8 March)

Event Time Altitude Azimuth Distance (km) Brightness Sun altitude
Rises 02:04:05 0° 285° (WNW) 4,890 - -36.7°
Reaches altitude 10° 02:09:25 10° 262° (W) 3,863 - -36.1°
Maximum altitude 02:13:40 14° 236° (SW) 3,537 - -35.6°
Drops below altitude 10° 02:17:51 10° 209° (SSW) 3,793 - -35.1°
Sets 02:23:02 0° 186° (S) 4,734 - -34.4°
